Вернуться в каталог

OPS 4682 DEB

АктивенPO
NORAD 38414·DEBRIS·🇺🇸 United States

Запущен Apr 3, 1965 с Vandenberg Space Force Base

Loading…

Ближайшие Пролёты (ближайшие 24 часа)

TLE

УстаревающийSource: Space-Track

Эпоха: Sep 8, 2026, 01:00 UTC

1 38414U 65027DT  26251.04220521  .00000724  00000-0  24402-2 0  9999
2 38414  90.2373 354.1592 0038478 246.7195 112.9874 12.98118567151556

Отслеживайте OPS 4682 DEB в реальном времени с AllMySat

Download on the App Store